VR2R-13 Weather Reports


Display with metric or nautical units.
time (UTC)temp
F
wind
direction
speed
MPH
gust
MPH
rain 1hr
in
rain 24hr
in
rain mn
in
humidity
%
barometer
mb
20260505215348 62 116 3.0 4.0 0.00 0.00 0.00 97 913.7
20260505215246 62 80 2.0 4.0 0.00 0.00 0.00 97 913.7
20260505214748 62 67 1.0 5.0 0.00 0.00 0.00 97 913.7
20260505214746 62 64 1.0 5.0 0.00 0.00 0.00 97 913.7
20260505214246 62 45 2.0 5.0 0.00 0.00 0.00 97 913.7
20260505213746 62 142 1.0 3.0 0.00 0.00 0.00 98 913.7
20260505213548 62 90 1.0 4.0 0.00 0.00 0.00 98 913.7
20260505213246 62 59 1.0 4.0 0.00 0.00 0.00 98 913.7
20260505212948 62 77 1.0 4.0 0.00 0.00 0.00 97 913.7
20260505212746 62 75 2.0 4.0 0.00 0.00 0.00 97 913.7
20260505212347 62 81 2.0 4.0 0.00 0.00 0.00 97 913.7
20260505211748 62 77 1.0 3.0 0.00 0.00 0.00 97 913.7
20260505211246 62 95 0.0 5.0 0.00 0.00 0.00 97 913.6
20260505211147 63 49 1.0 5.0 0.00 0.00 0.00 97 913.6
20260505210746 63 145 1.0 5.0 0.00 0.00 0.00 98 913.6
20260505210547 63 120 2.0 5.0 0.00 0.00 0.00 98 913.6
20260505210246 63 166 2.0 3.0 0.00 0.00 0.00 98 913.6
20260505205947 63 151 0.0 3.0 0.00 0.00 0.00 98 913.5
20260505205746 63 123 0.0 3.0 0.00 0.00 0.00 98 913.5
20260505205347 63 154 1.0 2.0 0.00 0.00 0.00 98 913.5
20260505205248 63 177 0.0 2.0 0.00 0.00 0.00 98 913.5
20260505204748 63 92 1.0 3.0 0.00 0.00 0.00 98 913.4
20260505204746 63 97 1.0 3.0 0.00 0.00 0.00 98 913.4
20260505204246 62 21 1.0 4.0 0.00 0.00 0.00 97 913.4
20260505204147 62 71 1.0 4.0 0.00 0.00 0.00 97 913.4
20260505203746 62 48 2.0 6.0 0.00 0.00 0.00 97 913.4
20260505203547 62 84 2.0 6.0 0.00 0.00 0.00 97 913.3
20260505203246 63 80 4.0 6.0 0.00 0.00 0.00 98 913.4
20260505202947 62 126 1.0 5.0 0.00 0.00 0.00 98 913.4
20260505202746 62 87 1.0 6.0 0.00 0.00 0.00 97 913.4
20260505202347 62 64 1.0 6.0 0.00 0.00 0.00 97 913.3
20260505202246 62 63 2.0 6.0 0.00 0.00 0.00 97 913.4
20260505201748 62 120 1.0 3.0 0.00 0.00 0.00 98 913.4
20260505201746 62 118 1.0 3.0 0.00 0.00 0.00 98 913.4
20260505201246 62 51 0.0 5.0 0.00 0.00 0.00 97 913.4
20260505201147 62 52 1.0 6.0 0.00 0.00 0.00 98 913.4
20260505200746 62 78 2.0 6.0 0.00 0.00 0.00 97 913.4
20260505200547 62 105 3.0 6.0 0.00 0.00 0.00 97 913.4
20260505200246 62 125 3.0 6.0 0.00 0.00 0.00 98 913.4
20260505195947 62 75 3.0 5.0 0.00 0.00 0.00 98 913.3
20260505195747 62 64 1.0 5.0 0.00 0.00 0.00 98 913.3
20260505195347 62 85 3.0 6.0 0.00 0.00 0.00 97 913.3
20260505195246 62 82 3.0 6.0 0.00 0.00 0.00 98 913.3
20260505194745 62 96 1.0 6.0 0.00 0.00 0.00 98 913.3
20260505194245 62 84 4.0 7.0 0.00 0.00 0.00 97 913.3
20260505194147 62 90 4.0 7.0 0.00 0.00 0.00 97 913.3
20260505193745 62 83 5.0 7.0 0.00 0.00 0.00 97 913.3
20260505193547 62 82 3.0 7.0 0.00 0.00 0.00 97 913.3
20260505193245 62 100 5.0 7.0 0.00 0.00 0.00 97 913.3
20260505192947 62 95 5.0 7.0 0.00 0.00 0.00 98 913.3
20260505192746 62 77 4.0 6.0 0.00 0.00 0.00 97 913.2
20260505192347 62 74 5.0 6.0 0.00 0.00 0.00 97 913.2
20260505192245 62 80 5.0 6.0 0.00 0.00 0.00 97 913.2
20260505191747 62 61 4.0 6.0 0.00 0.00 0.00 98 913.2
20260505191745 62 70 4.0 6.0 0.00 0.00 0.00 98 913.2
20260505191245 62 81 4.0 6.0 0.00 0.00 0.00 98 913.2
20260505191147 62 67 4.0 6.0 0.00 0.00 0.00 98 913.3
20260505190747 61 73 4.0 7.0 0.00 0.00 0.00 97 913.2
20260505190246 61 32 4.0 7.0 0.00 0.00 0.00 97 913.2
20260505185947 61 77 6.0 7.0 0.00 0.00 0.00 98 913.2
20260505185745 61 71 3.0 7.0 0.00 0.00 0.00 97 913.2
20260505185346 61 73 4.0 8.0 0.00 0.00 0.00 97 913.1
20260505185245 61 50 4.0 8.0 0.00 0.00 0.00 97 913.1
20260505184747 61 75 6.0 10.0 0.00 0.00 0.00 97 913.1
20260505184745 61 77 6.0 10.0 0.00 0.00 0.00 97 913.1
20260505184245 61 70 6.0 10.0 0.00 0.00 0.00 97 913.2
20260505184146 61 86 7.0 10.0 0.00 0.00 0.00 97 913.2
20260505183745 61 92 6.0 8.0 0.00 0.00 0.00 97 913.2
20260505183546 61 88 6.0 8.0 0.00 0.00 0.00 97 913.2
20260505183245 61 70 6.0 8.0 0.00 0.00 0.00 97 913.3
20260505182946 61 68 5.0 8.0 0.00 0.00 0.00 97 913.3
20260505182745 61 72 4.0 8.0 0.00 0.00 0.00 97 913.3
20260505182346 61 69 5.0 8.0 0.00 0.00 0.00 97 913.3
20260505181747 62 74 3.0 8.0 0.00 0.00 0.00 97 913.3
20260505181745 62 79 3.0 8.0 0.00 0.00 0.00 97 913.3
20260505181245 61 70 4.0 6.0 0.00 0.00 0.00 98 913.3
20260505181146 61 68 4.0 7.0 0.00 0.00 0.00 98 913.4
20260505180745 61 83 4.0 8.0 0.00 0.00 0.00 97 913.4
20260505180546 61 73 4.0 8.0 0.00 0.00 0.00 97 913.4
20260505180244 61 63 5.0 8.0 0.00 0.00 0.00 97 913.4
20260505175946 61 61 4.0 8.0 0.00 0.00 0.00 97 913.3
20260505175744 61 70 3.0 8.0 0.00 0.00 0.00 97 913.4
20260505175244 62 87 6.0 8.0 0.00 0.00 0.00 97 913.3
20260505174244 61 51 4.0 8.0 0.00 0.00 0.00 97 913.4
20260505174146 61 51 5.0 8.0 0.00 0.00 0.00 97 913.4
20260505173744 61 78 5.0 8.0 0.00 0.00 0.00 98 913.5
20260505173244 61 91 7.0 9.0 0.00 0.00 0.00 97 913.4
20260505172946 61 56 7.0 9.0 0.00 0.00 0.00 97 913.5
20260505172744 61 58 6.0 9.0 0.00 0.00 0.00 97 913.5
20260505172346 61 78 7.0 11.0 0.00 0.00 0.00 97 913.5
20260505172244 61 48 8.0 11.0 0.00 0.00 0.00 97 913.5
20260505171746 61 71 8.0 11.0 0.00 0.00 0.00 97 913.5
20260505171744 61 70 8.0 11.0 0.00 0.00 0.00 97 913.5
20260505171244 61 74 3.0 12.0 0.00 0.00 0.00 97 913.5
20260505170244 61 83 9.0 14.0 0.00 0.00 0.00 97 913.5
20260505165946 61 52 8.0 10.0 0.00 0.00 0.00 97 913.6
20260505165744 61 74 1.0 10.0 0.00 0.00 0.00 97 913.7
20260505165345 61 50 8.0 12.0 0.00 0.00 0.00 97 913.6
20260505165244 61 61 9.0 13.0 0.00 0.00 0.00 97 913.6
20260505164746 61 62 10.0 13.0 0.00 0.00 0.00 97 913.6
20260505164244 61 67 9.0 13.0 0.00 0.00 0.00 97 913.7
20260505164145 61 78 9.0 13.0 0.00 0.00 0.00 97 913.7
20260505163744 61 75 10.0 13.0 0.00 0.00 0.00 97 913.7
20260505163244 61 76 11.0 14.0 0.00 0.00 0.00 97 913.7
20260505162945 61 64 10.0 13.0 0.00 0.00 0.00 97 913.7
20260505162744 61 75 10.0 13.0 0.00 0.00 0.00 97 913.7
20260505162345 61 94 5.0 12.0 0.00 0.00 0.00 97 913.8
20260505162245 61 89 0.0 11.0 0.00 0.00 0.00 97 913.7
20260505161744 61 79 9.0 10.0 0.00 0.00 0.00 97 913.9
20260505161145 61 48 8.0 15.0 0.00 0.00 0.00 97 913.9
20260505160744 61 84 10.0 15.0 0.00 0.00 0.00 97 914.0
20260505160545 61 81 6.0 9.0 0.00 0.00 0.00 97 914.0
20260505160244 61 69 7.0 9.0 0.00 0.00 0.00 98 914.0
20260505153243 61 71 6.0 8.0 0.00 0.00 0.00 97 914.3
20260505152945 61 80 7.0 9.0 0.00 0.00 0.00 97 914.2
20260505152744 61 84 8.0 9.0 0.00 0.00 0.00 97 914.3
20260505152345 61 79 7.0 9.0 0.00 0.00 0.00 97 914.3
20260505152243 61 73 7.0 9.0 0.00 0.00 0.00 97 914.4
20260505151745 61 60 0.0 7.0 0.00 0.00 0.00 97 914.5
20260505151743 61 56 0.0 7.0 0.00 0.00 0.00 97 914.5
20260505151244 60 60 1.0 7.0 0.00 0.00 0.00 97 914.5
20260505151145 61 57 6.0 8.0 0.00 0.00 0.00 97 914.5
20260505150743 61 63 6.0 8.0 0.00 0.00 0.00 97 914.5
20260505150545 60 67 0.0 7.0 0.00 0.00 0.00 97 914.5
20260505150244 60 67 2.0 9.0 0.00 0.00 0.00 97 914.5
20260505140544 61 59 3.0 8.0 0.00 0.00 0.00 97 914.6
20260505130242 61 48 4.0 6.0 0.00 0.00 0.00 97 914.4
20260505124744 61 35 0.0 4.0 0.00 0.00 0.00 98 914.4
20260505124144 61 18 4.0 6.0 0.00 0.00 0.00 97 914.3
20260505123742 61 35 5.0 6.0 0.00 0.00 0.00 97 914.2
20260505123543 61 22 0.0 5.0 0.00 0.00 0.00 97 914.2
20260505123242 61 43 5.0 8.0 0.00 0.00 0.00 97 914.2
20260505122943 61 41 3.0 7.0 0.00 0.00 0.00 97 914.2
20260505122743 61 46 5.0 7.0 0.00 0.00 0.00 97 914.1
20260505122343 61 55 5.0 6.0 0.00 0.00 0.00 97 914.1
20260505122242 61 40 5.0 6.0 0.00 0.00 0.00 97 914.1
20260505121744 61 51 2.0 5.0 0.00 0.00 0.00 97 914.1
20260505121742 61 53 2.0 5.0 0.00 0.00 0.00 97 914.1
20260505121242 61 43 5.0 7.0 0.00 0.00 0.00 97 914.1
20260505121143 61 34 5.0 7.0 0.00 0.00 0.00 97 914.0
20260505120742 61 61 5.0 5.0 0.00 0.00 0.00 97 914.1
20260505120543 61 62 4.0 5.0 0.00 0.00 0.00 97 914.1
20260505115742 62 31 0.0 1.0 0.00 0.00 0.00 97 914.1
20260505115343 63 59 3.0 3.0 0.01 0.01 0.00 97 914.0
20260505115242 63 49 3.0 3.0 0.01 0.01 0.00 97 914.0
20260505114742 62 28 0.0 1.0 0.00 0.00 0.00 98 914.0
20260505114242 62 2 0.0 0.0 0.00 0.00 0.00 98 914.0
20260505114145 62 10 0.0 0.0 0.00 0.00 0.00 97 914.0
20260505113742 63 19 2.0 3.0 0.00 0.00 0.00 97 914.0
20260505113543 62 49 0.0 2.0 0.00 0.00 0.00 98 913.9
20260505113242 63 56 0.0 3.0 0.00 0.00 0.00 98 913.9
20260505112943 63 48 1.0 2.0 0.00 0.00 0.00 97 913.9
20260505112741 62 3 1.0 2.0 0.00 0.00 0.00 97 913.9
20260505112242 62 41 3.0 4.0 0.00 0.00 0.00 97 913.8
20260505111743 62 41 1.0 4.0 0.00 0.00 0.00 98 913.7
20260505111741 62 37 1.0 4.0 0.00 0.00 0.00 98 913.8
20260505111242 62 35 3.0 3.0 0.00 0.00 0.00 98 913.7
20260505111143 62 38 3.0 3.0 0.00 0.00 0.00 98 913.7
20260505110741 62 46 1.0 4.0 0.00 0.00 0.00 98 913.7
20260505110543 62 63 0.0 4.0 0.00 0.00 0.00 98 913.7
20260505110241 62 61 4.0 5.0 0.00 0.00 0.00 97 913.7
20260505101743 62 60 4.0 5.0 0.01 0.01 0.00 97 913.5
20260505101741 62 57 4.0 5.0 0.01 0.01 0.00 97 913.5
20260505101241 62 58 1.0 4.0 0.00 0.00 0.00 97 913.5
20260505101142 62 66 0.0 3.0 0.00 0.00 0.00 98 913.5
20260505100741 62 91 1.0 3.0 0.00 0.00 0.00 97 913.5
20260505100542 62 60 2.0 3.0 0.00 0.00 0.00 97 913.5
20260505100241 62 48 0.0 3.0 0.00 0.00 0.00 97 913.4
20260505095942 62 63 3.0 4.0 0.00 0.00 0.00 97 913.4
20260505095741 62 66 3.0 4.0 0.00 0.00 0.00 97 913.4
20260505095342 62 69 1.0 5.0 0.00 0.00 0.00 97 913.4
20260505094743 62 56 5.0 6.0 0.00 0.00 0.00 97 913.3
20260505094741 62 54 5.0 6.0 0.00 0.00 0.00 97 913.3
20260505094142 62 43 4.0 5.0 0.00 0.00 0.00 97 913.3
20260505093741 62 60 0.0 5.0 0.00 0.00 0.00 97 913.2
20260505093542 63 52 5.0 7.0 0.00 0.00 0.00 97 913.3
20260505093241 63 77 1.0 6.0 0.00 0.00 0.00 97 913.3
20260505092942 63 62 1.0 4.0 0.00 0.00 0.00 97 913.3
20260505092342 63 71 0.0 3.0 0.00 0.00 0.00 98 913.3
20260505092241 63 71 2.0 3.0 0.00 0.00 0.00 97 913.3
20260505091745 63 56 0.0 0.0 0.00 0.00 0.00 97 913.2
20260505091240 63 69 0.0 3.0 0.00 0.00 0.00 97 913.2
20260505091142 63 57 1.0 4.0 0.00 0.00 0.00 97 913.3
20260505090740 63 38 0.0 2.0 0.00 0.00 0.00 97 913.3
20260505090542 64 64 2.0 3.0 0.00 0.00 0.00 97 913.3
20260505090240 64 48 3.0 3.0 0.00 0.00 0.00 97 913.2
20260505085943 63 46 0.0 0.0 0.00 0.00 0.00 97 913.2
20260505085740 64 49 3.0 4.0 0.00 0.00 0.00 97 913.2
20260505085342 63 49 2.0 3.0 0.00 0.00 0.00 97 913.2
20260505085240 63 45 1.0 3.0 0.00 0.00 0.00 97 913.3
20260505084742 64 45 2.0 3.0 0.00 0.00 0.00 97 913.3
20260505084740 64 51 2.0 3.0 0.00 0.00 0.00 97 913.3
20260505084241 64 63 2.0 4.0 0.00 0.00 0.00 97 913.3
20260505084141 64 105 2.0 4.0 0.00 0.00 0.00 97 913.4
20260505083740 64 90 2.0 4.0 0.00 0.00 0.00 97 913.4
20260505083542 65 138 0.0 2.0 0.00 0.00 0.00 98 913.4
20260505083240 64 175 0.0 1.0 0.00 0.00 0.00 97 913.4
20260505082943 65 114 0.0 1.0 0.00 0.00 0.00 97 913.4
20260505082740 65 148 0.0 2.0 0.00 0.00 0.00 97 913.4
20260505082341 65 167 0.0 0.0 0.00 0.00 0.00 97 913.3
20260505082240 65 97 0.0 1.0 0.00 0.00 0.00 97 913.3
20260505081742 65 66 1.0 2.0 0.00 0.00 0.00 98 913.3
20260505081740 65 66 1.0 2.0 0.00 0.00 0.00 98 913.3
20260505081240 64 55 2.0 3.0 0.00 0.00 0.00 97 913.3
20260505081141 64 61 1.0 3.0 0.00 0.00 0.00 97 913.4
20260505080740 65 73 1.0 2.0 0.00 0.00 0.00 97 913.4
20260505080541 66 80 0.0 1.0 0.00 0.00 0.00 98 913.4
20260505080240 66 89 0.0 0.0 0.00 0.00 0.00 98 913.4
20260505075941 66 113 0.0 0.0 0.00 0.00 0.00 98 913.4
20260505075740 65 226 0.0 0.0 0.00 0.00 0.00 98 913.4
20260505075341 66 204 1.0 3.0 0.00 0.00 0.00 98 913.4
20260505075240 66 187 0.0 3.0 0.00 0.00 0.00 98 913.4
20260505074742 65 228 0.0 0.0 0.00 0.00 0.00 98 913.4
20260505074740 65 227 0.0 0.0 0.00 0.00 0.00 98 913.4
20260505074240 65 165 0.0 1.0 0.00 0.00 0.00 98 913.5
20260505073740 65 115 0.0 1.0 0.00 0.00 0.00 97 913.5
20260505073541 65 129 0.0 2.0 0.00 0.00 0.00 98 913.5
20260505073240 65 200 0.0 3.0 0.00 0.00 0.00 97 913.6
20260505072740 65 209 0.0 0.0 0.00 0.00 0.00 97 913.8
20260505072240 65 91 0.0 2.0 0.00 0.00 0.00 97 913.8
20260505071741 65 116 0.0 2.0 0.00 0.00 0.00 97 913.8
20260505071240 65 262 0.0 2.0 0.00 0.00 0.00 97 913.9
20260505070541 66 258 1.0 5.0 0.00 0.00 0.00 97 913.8
20260505070239 66 209 1.0 4.0 0.00 0.00 0.00 98 913.8
20260505065941 65 205 0.0 1.0 0.00 0.00 0.00 97 913.8
20260505065740 66 200 3.0 5.0 0.00 0.00 0.00 97 913.8
20260505065341 66 170 1.0 4.0 0.00 0.00 0.00 97 913.9
20260505065239 66 232 2.0 4.0 0.00 0.00 0.00 97 913.9
20260505064741 65 197 3.0 5.0 0.00 0.00 0.00 97 913.9
20260505064739 65 202 3.0 5.0 0.00 0.00 0.00 97 913.9
20260505064240 65 208 0.0 0.0 0.00 0.00 0.00 98 914.0
20260505063739 65 252 0.0 3.0 0.00 0.00 0.00 97 914.1
20260505063541 65 234 0.0 3.0 0.00 0.00 0.00 97 914.1
20260505063239 66 252 0.0 5.0 0.00 0.00 0.00 97 914.2
20260505062941 67 292 0.0 5.0 0.00 0.00 0.00 98 914.2
20260505062739 67 198 1.0 5.0 0.00 0.00 0.00 98 914.2
20260505062340 66 157 0.0 4.0 0.00 0.00 0.00 98 914.3
20260505062240 66 198 0.0 4.0 0.00 0.00 0.00 98 914.3
20260505061741 65 162 0.0 2.0 0.00 0.00 0.00 98 914.3
20260505061240 65 263 0.0 1.0 0.00 0.00 0.00 97 914.3
20260505061140 65 238 0.0 1.0 0.00 0.00 0.00 97 914.4
20260505060739 65 270 0.0 3.0 0.00 0.00 0.00 97 914.4
20260505060540 66 293 0.0 5.0 0.00 0.00 0.00 98 914.3
20260505060239 65 307 1.0 5.0 0.00 0.00 0.00 98 914.3
20260505055940 65 232 2.0 5.0 0.00 0.00 0.00 98 914.3
20260505055739 65 261 2.0 4.0 0.00 0.00 0.00 98 914.4
20260505055340 65 262 3.0 5.0 0.00 0.00 0.00 98 914.4
20260505055239 65 255 2.0 5.0 0.00 0.00 0.00 98 914.4
20260505054741 65 252 2.0 6.0 0.00 0.00 0.00 98 914.4
20260505054739 65 249 2.0 6.0 0.00 0.00 0.00 98 914.4
20260505054239 65 275 2.0 5.0 0.00 0.00 0.00 98 914.5
20260505054140 65 258 2.0 5.0 0.00 0.00 0.00 98 914.5
20260505053739 65 268 2.0 4.0 0.00 0.00 0.00 98 914.6
20260505053540 65 194 2.0 4.0 0.00 0.00 0.00 98 914.7
20260505053239 64 252 2.0 5.0 0.00 0.00 0.00 98 914.7
20260505052940 65 267 3.0 5.0 0.00 0.00 0.00 98 914.7
20260505052739 64 256 2.0 4.0 0.00 0.00 0.00 98 914.7
20260505052340 65 256 1.0 4.0 0.00 0.00 0.00 98 914.8
20260505051740 64 256 3.0 6.0 0.00 0.00 0.00 98 914.9
20260505051239 65 235 3.0 6.0 0.00 0.00 0.00 98 914.9
20260505051140 65 245 2.0 6.0 0.00 0.00 0.00 98 915.0
20260505050540 65 242 3.0 6.0 0.00 0.00 0.00 98 915.1
20260505050239 65 259 2.0 4.0 0.00 0.00 0.00 98 915.0
20260505041740 64 270 4.0 8.0 0.00 0.00 0.00 97 915.4
20260505041738 64 269 4.0 8.0 0.00 0.00 0.00 97 915.4
20260505041238 64 255 3.0 8.0 0.00 0.00 0.00 98 915.5
20260505041139 63 245 4.0 8.0 0.00 0.00 0.00 98 915.6
20260505040738 64 229 3.0 6.0 0.00 0.00 0.00 98 915.7
20260505040539 64 245 4.0 6.0 0.00 0.00 0.00 97 915.7
20260505040238 64 280 3.0 5.0 0.00 0.00 0.00 97 915.7
20260505035939 64 238 2.0 5.0 0.00 0.00 0.00 98 915.7
20260505035738 64 221 2.0 5.0 0.00 0.00 0.00 98 915.7
20260505035339 64 232 3.0 5.0 0.00 0.00 0.00 98 915.8
20260505035238 64 274 2.0 4.0 0.00 0.00 0.00 98 915.8
20260505034740 64 258 3.0 5.0 0.00 0.00 0.00 98 915.8
20260505034738 64 256 3.0 5.0 0.00 0.00 0.00 98 915.8
20260505034238 64 247 2.0 4.0 0.00 0.00 0.00 98 915.8
20260505034139 64 253 0.0 2.0 0.00 0.00 0.00 98 915.8
20260505033738 64 234 1.0 4.0 0.00 0.00 0.00 98 915.8
20260505033539 63 251 3.0 5.0 0.00 0.00 0.00 98 915.9
20260505033238 64 255 3.0 6.0 0.01 0.01 0.00 98 915.9
20260505032939 64 254 4.0 6.0 0.00 0.00 0.00 98 915.9
20260505032738 64 215 5.0 7.0 0.00 0.00 0.00 98 915.9
20260505032339 63 206 4.0 6.0 0.00 0.00 0.00 98 915.9
20260505032238 64 227 2.0 6.0 0.00 0.00 0.00 98 916.0
20260505031740 63 217 3.0 5.0 0.01 0.01 0.00 98 916.1
20260505031738 63 214 3.0 5.0 0.01 0.01 0.00 98 916.0
20260505031238 63 185 3.0 5.0 0.00 0.00 0.00 98 916.1
20260505031139 63 169 1.0 5.0 0.00 0.00 0.00 98 916.1
20260505030737 62 156 0.0 2.0 0.00 0.00 0.00 98 916.0
20260505030539 62 120 2.0 3.0 0.00 0.00 0.00 98 916.0
20260505030238 61 110 4.0 8.0 0.01 0.01 0.00 98 916.1
20260505025939 61 121 4.0 6.0 0.00 0.00 0.00 97 916.1
20260505025738 60 103 1.0 6.0 0.00 0.00 0.00 97 916.1
20260505025339 60 55 3.0 7.0 0.01 0.01 0.00 97 916.1
20260505025238 60 64 3.0 7.0 0.01 0.01 0.00 97 916.1
20260505024739 61 96 4.0 7.0 0.00 0.00 0.00 97 916.1
20260505024238 61 110 1.0 5.0 0.00 0.00 0.00 97 916.1
20260505024139 60 116 0.0 1.0 0.00 0.00 0.00 98 916.1
20260505023737 60 3 0.0 2.0 0.00 0.00 0.00 97 916.1
20260505023539 60 63 0.0 4.0 0.00 0.00 0.00 97 916.2
20260505023237 60 52 3.0 5.0 0.00 0.00 0.00 97 916.2
20260505022939 60 71 2.0 5.0 0.00 0.00 0.00 97 916.1
20260505022737 60 52 3.0 7.0 0.00 0.00 0.00 97 916.1
20260505022339 60 42 4.0 7.0 0.00 0.00 0.00 97 916.1
20260505022237 59 51 4.0 7.0 0.00 0.00 0.00 97 916.1
20260505021737 59 32 4.0 7.0 0.00 0.00 0.00 97 916.1
20260505021237 60 56 5.0 8.0 0.00 0.00 0.00 97 916.0
20260505021138 59 62 5.0 8.0 0.00 0.00 0.00 97 916.1
20260505020738 60 74 6.0 9.0 0.00 0.00 0.00 97 916.0
20260505020538 60 56 4.0 9.0 0.00 0.00 0.00 97 916.0
20260505020237 60 84 7.0 9.0 0.00 0.00 0.00 98 916.0
20260505015938 59 85 2.0 8.0 0.00 0.00 0.00 97 916.0
20260505015338 59 19 4.0 6.0 0.01 0.01 0.00 97 916.0
20260505015237 59 44 5.0 6.0 0.01 0.01 0.00 97 916.0
20260505014740 59 64 1.0 6.0 0.00 0.00 0.00 97 916.0
20260505014738 59 66 1.0 6.0 0.00 0.00 0.00 97 916.0
20260505014237 59 52 4.0 7.0 0.01 0.01 0.00 97 916.0
20260505014138 59 41 4.0 7.0 0.01 0.01 0.00 97 916.0
20260505013538 59 90 5.0 7.0 0.01 0.01 0.00 97 916.0
20260505012938 59 57 5.0 6.0 0.00 0.00 0.00 97 916.0
20260505012338 59 53 5.0 10.0 0.01 0.01 0.00 97 916.0
20260505012237 59 67 5.0 10.0 0.01 0.01 0.00 97 916.0
20260505011739 59 76 8.0 10.0 0.00 0.00 0.00 97 916.0
20260505011737 59 77 8.0 10.0 0.00 0.00 0.00 97 916.0
20260505011237 59 78 3.0 9.0 0.00 0.00 0.00 97 916.0
20260505010737 59 70 9.0 12.0 0.00 0.00 0.00 97 916.0
20260505010539 59 25 0.0 0.0 0.00 0.00 0.00 97 915.9
20260505010237 59 91 0.0 8.0 0.00 0.00 0.00 97 915.9
20260505005938 59 69 1.0 9.0 0.00 0.00 0.00 97 915.8
20260505005737 59 79 8.0 11.0 0.01 0.01 0.00 97 915.7
20260505005338 59 85 9.0 11.0 0.00 0.00 0.00 97 915.8
20260505005237 59 80 8.0 11.0 0.00 0.00 0.00 97 915.7
20260505004738 59 57 8.0 11.0 0.01 0.01 0.00 97 915.7
20260505004736 59 58 8.0 11.0 0.01 0.01 0.00 97 915.7
20260505004237 59 73 9.0 11.0 0.01 0.01 0.00 97 915.7
20260505004138 59 85 4.0 11.0 0.00 0.00 0.00 97 915.6
20260505003736 59 59 9.0 14.0 0.01 0.01 0.00 97 915.6
20260505003538 59 75 10.0 12.0 0.01 0.01 0.00 97 915.6
20260505003237 59 62 6.0 12.0 0.00 0.00 0.00 97 915.5
20260505002938 59 58 0.0 10.0 0.00 0.00 0.00 97 915.4
20260505002736 59 71 9.0 11.0 0.01 0.01 0.00 97 915.5
20260505002338 59 87 9.0 12.0 0.03 0.03 0.00 97 915.4
20260505002236 59 70 9.0 12.0 0.03 0.03 0.00 97 915.4
20260505001738 59 79 8.0 12.0 0.02 0.02 0.00 97 915.4
20260505001736 59 72 8.0 12.0 0.02 0.02 0.00 97 915.4
20260505001236 59 66 5.0 8.0 0.00 0.00 0.00 97 915.4
20260505001138 59 77 1.0 8.0 0.00 0.00 0.00 97 915.4
20260505000736 59 60 8.0 10.0 0.00 0.00 0.00 97 915.3
20260505000538 59 83 8.0 10.0 0.00 0.00 0.00 97 915.3
20260504235938 59 66 6.0 8.0 0.00 0.00 0.00 97 915.3
20260504235736 59 79 6.0 8.0 0.00 0.00 0.00 97 915.4
20260504235337 59 60 0.0 6.0 0.00 0.00 0.00 97 915.3
20260504235237 59 63 7.0 11.0 0.00 0.00 0.00 97 915.3
20260504234738 59 75 8.0 10.0 0.00 0.00 0.00 97 915.1
20260504234736 59 72 8.0 10.0 0.00 0.00 0.00 97 915.1
20260504234237 59 63 4.0 11.0 0.00 0.00 0.00 97 915.1
20260504233736 59 80 8.0 12.0 0.00 0.00 0.00 97 915.1
20260504233537 59 50 9.0 12.0 0.00 0.00 0.00 97 915.1
20260504233236 59 75 10.0 12.0 0.00 0.00 0.00 97 915.1
20260504232937 59 58 8.0 12.0 0.00 0.00 0.00 97 915.0
20260504232736 59 54 8.0 12.0 0.00 0.00 0.00 97 915.0
20260504232337 59 46 5.0 11.0 0.00 0.00 0.00 97 915.0
20260504232236 59 66 0.0 10.0 0.00 0.00 0.00 97 915.0
20260504231738 59 85 10.0 11.0 0.01 0.01 0.00 97 914.9
20260504231736 59 66 10.0 11.0 0.01 0.01 0.00 97 914.9
20260504231236 59 72 8.0 11.0 0.01 0.01 0.00 97 914.9
20260504231137 59 69 8.0 12.0 0.01 0.01 0.00 97 914.9
20260504230736 59 58 9.0 12.0 0.01 0.01 0.00 97 915.0
20260504230537 59 64 8.0 12.0 0.00 0.00 0.00 97 915.0
20260504230236 59 67 4.0 12.0 0.00 0.00 0.00 97 915.0
20260504225937 59 53 8.0 11.0 0.00 0.00 0.00 97 914.9
20260504225736 59 78 8.0 11.0 0.00 0.00 0.00 97 914.9
20260504225337 59 87 8.0 11.0 0.00 0.00 0.00 97 915.0
20260504225237 59 58 7.0 9.0 0.00 0.00 0.00 97 915.0
20260504224737 59 71 7.0 9.0 0.00 0.00 0.00 97 915.0
20260504224236 58 68 7.0 9.0 0.00 0.00 0.00 97 915.0
20260504224137 58 70 7.0 9.0 0.00 0.00 0.00 97 915.0
20260504223736 58 76 4.0 9.0 0.00 0.00 0.00 97 914.9
20260504223537 58 66 9.0 11.0 0.01 0.01 0.00 97 914.9
20260504223236 58 74 9.0 11.0 0.01 0.01 0.00 97 914.8
20260504222937 58 77 9.0 11.0 0.00 0.00 0.00 97 914.8
20260504222736 58 87 8.0 11.0 0.00 0.00 0.00 97 914.7
20260504222337 58 69 6.0 11.0 0.00 0.00 0.00 97 914.7
20260504222236 58 76 1.0 11.0 0.00 0.00 0.00 97 914.7
20260504221737 58 74 10.0 14.0 0.05 0.05 0.00 97 914.7
20260504221735 58 79 10.0 14.0 0.05 0.05 0.00 97 914.7
20260504221235 58 72 10.0 17.0 0.03 0.03 0.00 97 914.7
20260504220735 58 70 13.0 17.0 0.02 0.02 0.00 97 914.6
20260504220537 58 54 13.0 17.0 0.02 0.02 0.00 97 914.5
20260504220235 58 83 12.0 16.0 0.01 0.01 0.00 97 914.6
20260504215937 58 77 10.0 16.0 0.01 0.01 0.00 97 914.7
20260504215735 58 45 10.0 16.0 0.01 0.01 0.00 97 914.7